Tyler, TX

12:21 AM CST on November 23, 2017 (GMT -0600)
Tyler Pounds

Weather History for KTYR - February, 2014

Change the Weather History Date:

Monday, February 24, 2014

  Actual Average Record
Temperature  
Mean Temperature 54 °F 53 °F  
Max Temperature 62 °F 63 °F 85 °F (1918)
Min Temperature 46 °F 43 °F 19 °F (1965)
Degree Days  
Heating Degree Days 11 13  
Month to date heating degree days 406 364  
Since 1 July heating degree days 1990 1842  
Cooling Degree Days 0 0  
Month to date cooling degree days 3 0  
Year to date cooling degree days 3 4  
Growing Degree Days 4 (Base 50)    
Moisture  
Dew Point 42 °F    
Average Humidity 65    
Maximum Humidity 74    
Minimum Humidity 55    
Precipitation  
Precipitation 0.00 in 0.13 in 1.80 in (1902)
Month to date precipitation 2.10 3.21  
Year to date precipitation 2.80 6.27  
Snow  
Snow 0.00 in - - ()
Month to date snowfall 0.2  
Since 1 July snowfall 0.2  
Snow Depth 0.00 in    
Sea Level Pressure  
Sea Level Pressure 30.08 in    
Wind  
Wind Speed 7 mph (ENE)    
Max Wind Speed 13 mph    
Max Gust Speed 20 mph    
Visibility 10 miles    
Events      
T = Trace of Precipitation, MM = Missing Value Source: NWS Daily Summary

Daily Weather History Graph

Daily Weather History Graph

Search for Another Location

Airport or City:

Trip Planner

Search our weather history database for the weather conditions in past years. The results will help you decide how hot, cold, wet, or windy it might be!

Date:

Astronomy

Feb. 24, 2014 Rise Set
Actual Time 6:54 AM CST 6:15 PM CST
Civil Twilight 6:30 AM CST 6:39 PM CST
Nautical Twilight 6:01 AM CST 7:08 PM CST
Astronomical Twilight 5:33 AM CST 7:36 PM CST
Moon 2:44 AM CST (2/24) 1:27 PM CST (2/24)
Length of Visible Light 12h 09m
Length of Day
11h 20m
Waning Crescent, 28% of the Moon is Illuminated
Feb 24
Waning Crescent
Mar 1
New
Mar 8
First Quarter
Mar 16
Full
Mar 23
Last Quarter

Hourly Weather History & Observations

Time (CST) Temp. Windchill Dew Point Humidity Pressure Visibility Wind Dir Wind Speed Gust Speed Precip Events Conditions
12:53 AM 50.0 °F - 42.1 °F 74% 30.07 in 10.0 mi NNE 6.9 mph - N/A   Clear
1:53 AM 51.1 °F - 39.9 °F 66% 30.08 in 10.0 mi NE 9.2 mph - N/A   Clear
2:53 AM 50.0 °F - 39.0 °F 66% 30.06 in 10.0 mi ENE 11.5 mph - N/A   Clear
3:53 AM 48.9 °F - 37.9 °F 66% 30.06 in 10.0 mi ENE 10.4 mph - N/A   Clear
4:53 AM 46.9 °F - 37.0 °F 68% 30.07 in 10.0 mi ENE 10.4 mph - N/A   Clear
5:53 AM 46.0 °F 41.4 °F 36.0 °F 68% 30.09 in 10.0 mi ENE 9.2 mph - N/A   Clear
6:53 AM 46.0 °F 41.9 °F 36.0 °F 68% 30.10 in 10.0 mi ENE 8.1 mph - N/A   Scattered Clouds
7:01 AM 46.4 °F 42.4 °F 35.6 °F 66% 30.11 in 10.0 mi ENE 8.1 mph - N/A   Mostly Cloudy
7:50 AM 46.4 °F 41.9 °F 37.4 °F 71% 30.13 in 10.0 mi East 9.2 mph - N/A   Scattered Clouds
7:53 AM 46.9 °F - 36.0 °F 66% 30.12 in 10.0 mi East 11.5 mph - N/A   Mostly Cloudy
8:53 AM 48.9 °F - 37.9 °F 66% 30.15 in 10.0 mi East 6.9 mph - N/A   Overcast
9:53 AM 51.1 °F - 39.0 °F 63% 30.15 in 10.0 mi East 9.2 mph - N/A   Overcast
10:53 AM 54.0 °F - 39.9 °F 59% 30.14 in 10.0 mi ENE 8.1 mph - N/A   Overcast
11:53 AM 55.9 °F - 42.1 °F 60% 30.13 in 10.0 mi East 9.2 mph - N/A   Overcast
12:53 PM 57.9 °F - 44.1 °F 60% 30.10 in 10.0 mi East 5.8 mph - N/A   Overcast
1:53 PM 59.0 °F - 45.0 °F 60% 30.09 in 10.0 mi Calm Calm - N/A   Overcast
2:53 PM 61.0 °F - 46.0 °F 58% 30.07 in 10.0 mi Calm Calm - N/A   Overcast
3:53 PM 62.1 °F - 46.0 °F 56% 30.05 in 10.0 mi ENE 5.8 mph - N/A   Mostly Cloudy
4:53 PM 62.1 °F - 46.0 °F 56% 30.04 in 10.0 mi East 8.1 mph - N/A   Mostly Cloudy
5:01 PM 62.6 °F - 46.4 °F 55% 30.04 in 10.0 mi East 6.9 mph - N/A   Scattered Clouds
5:09 PM 60.8 °F - 46.4 °F 59% 30.03 in 10.0 mi East 6.9 mph - N/A   Mostly Cloudy
5:53 PM 61.0 °F - 45.0 °F 56% 30.04 in 10.0 mi East 5.8 mph - N/A   Overcast
6:53 PM 60.1 °F - 45.0 °F 57% 30.04 in 10.0 mi NE 3.5 mph - N/A   Overcast
7:53 PM 59.0 °F - 45.0 °F 60% 30.06 in 10.0 mi NNE 4.6 mph - N/A   Overcast
8:53 PM 57.9 °F - 45.0 °F 62% 30.06 in 10.0 mi NE 6.9 mph - N/A   Overcast
9:53 PM 57.0 °F - 43.0 °F 59% 30.05 in 10.0 mi NE 9.2 mph - N/A   Overcast
10:53 PM 57.0 °F - 43.0 °F 59% 30.05 in 10.0 mi ESE 5.8 mph - N/A   Overcast
11:31 PM 57.2 °F - 44.6 °F 63% 30.04 in 10.0 mi SE 3.5 mph - N/A   Overcast
11:53 PM 57.0 °F - 44.1 °F 62% 30.04 in 10.0 mi Calm Calm - N/A   Overcast